Weather History for Sturgis, MI

Change the Weather History Date:

Sunday, April 28, 2013

  Actual Average (KHAI) Record (KHAI)
Temperature  
Mean Temperature 52 °F -  
Max Temperature 57 °F 64 °F 85 °F (1951)
Min Temperature 48 °F 41 °F 27 °F (1950)
Degree Days  
Heating Degree Days 12    
Growing Degree Days 2 (Base 50)    
Moisture  
Dew Point 49 °F    
Average Humidity 88    
Maximum Humidity 100    
Minimum Humidity 51    
Precipitation  
Precipitation 0.00 in - - ()
Sea Level Pressure  
Sea Level Pressure 29.90 in    
Wind  
Wind Speed 5 mph (East)    
Max Wind Speed 9 mph    
Max Gust Speed -    
Visibility 7 miles    
Events Rain    
Averages and records for this station are not official NWS values.
T = Trace of Precipitation, MM = Missing Value Source: NWS Daily Summary

Daily Weather History Graph

Daily Weather History Graph

Search for Another Location

Airport:

Trip Planner

Search our weather history database for the weather conditions in past years. The results will help you decide how hot, cold, wet, or windy it might be!

Date:

Astronomy

Apr. 28, 2013 Rise Set
Actual Time 6:41 AM EDT 8:37 PM EDT
Civil Twilight 6:11 AM EDT 9:07 PM EDT
Nautical Twilight 5:35 AM EDT 9:44 PM EDT
Astronomical Twilight 4:55 AM EDT 10:24 PM EDT
Moon No Moon Rise 8:56 AM EDT (4/28)
Length of Visible Light 14h 55m
Length of Day
13h 55m
Waning Gibbous, 89% of the Moon is Illuminated
Apr 28
Waning Gibbous
May 2
Last Quarter
May 9
New
May 18
First Quarter
May 25
Full

Hourly Weather History & Observations

Time (EDT) Temp. Dew Point Humidity Pressure Visibility Wind Dir Wind Speed Gust Speed Precip Events Conditions
12:15 AM 57.2 °F 39.2 °F 51% 30.06 in 10.0 mi ESE 6.9 mph - N/A   Overcast
12:35 AM 55.4 °F 41.0 °F 58% 30.05 in 10.0 mi ESE 8.1 mph - N/A   Overcast
12:54 AM 55.4 °F 41.0 °F 58% 30.05 in 10.0 mi ESE 6.9 mph - N/A   Overcast
1:15 AM 55.4 °F 39.2 °F 54% 30.04 in 10.0 mi ESE 8.1 mph - N/A   Overcast
1:35 AM 55.4 °F 41.0 °F 58% 30.04 in 10.0 mi ESE 5.8 mph - N/A   Overcast
1:54 AM 53.6 °F 39.2 °F 58% 30.02 in 10.0 mi East 5.8 mph - N/A   Overcast
2:15 AM 53.6 °F 41.0 °F 62% 30.01 in 10.0 mi East 6.9 mph - N/A   Overcast
2:35 AM 53.6 °F 41.0 °F 62% 30.00 in 10.0 mi East 6.9 mph - N/A   Overcast
2:55 AM 53.6 °F 41.0 °F 62% 29.99 in 10.0 mi ESE 5.8 mph - N/A   Overcast
3:15 AM 53.6 °F 41.0 °F 62% 29.99 in 10.0 mi East 5.8 mph - N/A   Overcast
3:35 AM 51.8 °F 39.2 °F 62% 29.98 in 10.0 mi East 6.9 mph - N/A   Mostly Cloudy
3:55 AM 51.8 °F 41.0 °F 67% 29.98 in 10.0 mi East 6.9 mph - N/A   Mostly Cloudy
4:15 AM 51.8 °F 41.0 °F 67% 29.97 in 10.0 mi East 6.9 mph - N/A   Overcast
4:34 AM 51.8 °F 42.8 °F 71% 29.97 in 10.0 mi ENE 5.8 mph - N/A   Overcast
4:55 AM 51.8 °F 41.0 °F 67% 29.96 in 10.0 mi East 5.8 mph - N/A   Overcast
5:15 AM 51.8 °F 41.0 °F 67% 29.96 in 10.0 mi East 5.8 mph - N/A Rain Light Rain
5:34 AM 50.0 °F 42.8 °F 76% 29.95 in 10.0 mi East 6.9 mph - N/A   Light Drizzle
5:55 AM 50.0 °F 42.8 °F 76% 29.94 in 10.0 mi East 5.8 mph - N/A Rain Light Rain
6:15 AM 48.2 °F 42.8 °F 82% 29.94 in 10.0 mi East 5.8 mph - N/A Rain Rain
6:35 AM 48.2 °F 44.6 °F 87% 29.94 in 10.0 mi East 5.8 mph - N/A Rain Light Rain
6:55 AM 48.2 °F 44.6 °F 87% 29.94 in 10.0 mi ENE 4.6 mph - N/A Rain Light Rain
7:15 AM 48.2 °F 44.6 °F 87% 29.94 in 7.0 mi East 4.6 mph - N/A Rain Rain
7:35 AM 48.2 °F 46.4 °F 93% 29.95 in 7.0 mi East 5.8 mph - N/A Rain Rain
7:55 AM 48.2 °F 46.4 °F 93% 29.94 in 5.0 mi East 5.8 mph - N/A Rain Rain
8:15 AM 48.2 °F 46.4 °F 93% 29.94 in 5.0 mi East 9.2 mph - N/A Rain Light Rain
8:35 AM 48.2 °F 46.4 °F 93% 29.93 in 3.0 mi East 6.9 mph - N/A Rain Light Rain
9:14 AM 48.2 °F 48.2 °F 100% 29.92 in 3.0 mi East 8.1 mph - N/A Rain Light Rain
9:35 AM 48.2 °F 48.2 °F 100% 29.91 in 3.0 mi East 8.1 mph - N/A   Overcast
9:55 AM 50.0 °F 48.2 °F 94% 29.91 in 3.0 mi East 6.9 mph - N/A   Overcast
10:14 AM 50.0 °F 48.2 °F 94% 29.90 in 4.0 mi ESE 5.8 mph - N/A Rain Light Rain
10:35 AM 51.8 °F 50.0 °F 94% 29.89 in 5.0 mi East 9.2 mph - N/A   Light Drizzle
10:55 AM 51.8 °F 50.0 °F 94% 29.89 in 7.0 mi ESE 8.1 mph - N/A   Overcast
11:14 AM 51.8 °F 51.8 °F 100% 29.89 in 10.0 mi ESE 8.1 mph - N/A   Overcast
11:35 AM 51.8 °F 51.8 °F 100% 29.88 in 10.0 mi ESE 6.9 mph - N/A   Overcast
11:55 AM 53.6 °F 51.8 °F 94% 29.89 in 10.0 mi ESE 8.1 mph - N/A   Overcast
12:14 PM 53.6 °F 51.8 °F 94% 29.89 in 10.0 mi East 6.9 mph - N/A   Overcast
12:35 PM 53.6 °F 51.8 °F 94% 29.88 in 7.0 mi ESE 5.8 mph - N/A   Overcast
12:55 PM 53.6 °F 51.8 °F 94% 29.88 in 5.0 mi ESE 5.8 mph - N/A   Overcast
1:14 PM 53.6 °F 51.8 °F 94% 29.87 in 2.5 mi ESE 4.6 mph - N/A   Overcast
1:35 PM 53.6 °F 53.6 °F 100% 29.86 in 2.0 mi ESE 3.5 mph - N/A   Overcast
1:55 PM 53.6 °F 53.6 °F 100% 29.86 in 1.2 mi ESE 3.5 mph - N/A   Overcast
2:14 PM 53.6 °F 53.6 °F 100% 29.86 in 1.5 mi ESE 3.5 mph - N/A   Overcast
2:35 PM 53.6 °F 53.6 °F 100% 29.85 in 2.5 mi Calm Calm - N/A   Overcast
2:55 PM 53.6 °F 53.6 °F 100% 29.85 in 2.5 mi Calm Calm - N/A   Overcast
3:14 PM 53.6 °F 53.6 °F 100% 29.85 in 1.2 mi Calm Calm - N/A   Overcast
3:35 PM 53.6 °F 53.6 °F 100% 29.85 in 1.2 mi Calm Calm - N/A   Drizzle
3:55 PM 53.6 °F 53.6 °F 100% 29.85 in 1.8 mi Calm Calm - N/A   Drizzle
4:15 PM 53.6 °F 53.6 °F 100% 29.85 in 1.8 mi Calm Calm - N/A   Drizzle
4:35 PM 55.4 °F 53.6 °F 94% 29.84 in 2.0 mi Calm Calm - N/A   Light Drizzle
4:55 PM 55.4 °F 53.6 °F 94% 29.84 in 2.5 mi Calm Calm - N/A   Overcast
5:15 PM 55.4 °F 53.6 °F 94% 29.84 in 2.5 mi North 3.5 mph - N/A   Drizzle
5:34 PM 55.4 °F 53.6 °F 94% 29.83 in 5.0 mi Calm Calm - N/A   Light Drizzle
5:55 PM 55.4 °F 53.6 °F 94% 29.83 in 4.0 mi North 4.6 mph - N/A   Overcast
6:15 PM 55.4 °F 53.6 °F 94% 29.83 in 7.0 mi NE 3.5 mph - N/A   Overcast
6:34 PM 55.4 °F 53.6 °F 94% 29.83 in 10.0 mi NNE 4.6 mph - N/A   Overcast
6:55 PM 55.4 °F 53.6 °F 94% 29.83 in 10.0 mi Calm Calm - N/A   Overcast
7:15 PM 55.4 °F 53.6 °F 94% 29.83 in 10.0 mi Calm Calm - N/A   Overcast
7:34 PM 55.4 °F 53.6 °F 94% 29.83 in 10.0 mi Calm Calm - N/A   Overcast
7:55 PM 55.4 °F 53.6 °F 94% 29.83 in 10.0 mi Calm Calm - N/A   Overcast
8:15 PM 55.4 °F 53.6 °F 94% 29.83 in 10.0 mi Calm Calm - N/A   Overcast
8:34 PM 53.6 °F 53.6 °F 100% 29.84 in 10.0 mi Calm Calm - N/A   Overcast
8:55 PM 53.6 °F 53.6 °F 100% 29.84 in 10.0 mi Calm Calm - N/A   Overcast
9:15 PM 53.6 °F 53.6 °F 100% 29.85 in 10.0 mi Calm Calm - N/A   Overcast
9:34 PM 53.6 °F 53.6 °F 100% 29.85 in 10.0 mi Calm Calm - N/A   Overcast
9:55 PM 53.6 °F 53.6 °F 100% 29.86 in 7.0 mi Calm Calm - N/A   Overcast
10:15 PM 53.6 °F 53.6 °F 100% 29.86 in 7.0 mi Calm Calm - N/A   Overcast
10:34 PM 53.6 °F 53.6 °F 100% 29.86 in 7.0 mi Calm Calm - N/A   Overcast
10:55 PM 53.6 °F 53.6 °F 100% 29.86 in 7.0 mi Calm Calm - N/A   Overcast
11:15 PM 53.6 °F 53.6 °F 100% 29.86 in 5.0 mi Calm Calm - N/A   Overcast
11:34 PM 53.6 °F 53.6 °F 100% 29.86 in 4.0 mi Calm Calm - N/A   Overcast
11:55 PM 53.6 °F 53.6 °F 100% 29.86 in 3.0 mi Calm Calm - N/A   Overcast